Phenix City, Alabama, United States (36867)
Lat: 32.47N, Lon: 85W
Wx Zone: ALZ048
Local Info
Past Weather Observations for Yesterday

NOTE: This archive is for the closest National Weather Service station to Phenix City. Information may differ from the station used for current weather conditions.

Click here for Long-term Archive

Time Weather Temperature Dewpoint Humidity Pressure Winds Precip Visibility
23:51
Overcast
73°F / 23°C 70°F / 21°C 89% 30.06 in
(1018 mb)
E 6.9 mph
(E 11 kph)
- 10SM
23:49
Overcast
73°F / 23°C 70°F / 21°C 89% 30.06 in
(1018 mb)
E 6.9 mph
(E 11 kph)
- 10SM
23:25
Mostly Cloudy
73°F / 23°C 70°F / 21°C 89% 30.06 in
(1018 mb)
E 3.5 mph
(E 6 kph)
- 10SM
22:51
Clear
73°F / 23°C 70°F / 21°C 89% 30.06 in
(1018 mb)
ESE 8.1 mph
(ESE 13 kph)
- 10SM
21:51
Partly Cloudy
75°F / 24°C 70°F / 21°C 83% 30.06 in
(1018 mb)
E 5.8 mph
(E 9 kph)
- 10SM
21:28
Mostly Cloudy
75°F / 24°C 70°F / 21°C 83% 30.06 in
(1018 mb)
ENE 3.5 mph
(ENE 6 kph)
- 10SM
20:51
Partly Cloudy
75°F / 24°C 70°F / 21°C 83% 30.04 in
(1017 mb)
E 8.1 mph
(E 13 kph)
- 10SM
19:51
Mostly Cloudy
77°F / 25°C 70°F / 21°C 79% 30.04 in
(1017 mb)
ENE 9.2 mph
(ENE 15 kph)
- 10SM
18:51
Partly Cloudy
81°F / 27°C 70°F / 21°C 70% 30.01 in
(1016 mb)
E 5.8 mph
(E 9 kph)
- 10SM
17:51
Clear
84°F / 29°C 70°F / 21°C 62% 30.01 in
(1016 mb)
NE 8.1 mph
(NE 13 kph)
- 10SM
16:51
Clear
86°F / 30°C 66°F / 19°C 52% 30.01 in
(1016 mb)
WNW 8.1 mph
(WNW 13 kph)
- 10SM
15:51
Partly Cloudy
88°F / 31°C 64°F / 18°C 46% 30.01 in
(1016 mb)
NNW 6.9 mph
(NNW 11 kph)
- 10SM
14:51
Clear
84°F / 29°C 66°F / 19°C 55% 30.04 in
(1017 mb)
SSW 10.4 mph
(SSW 17 kph)
- 10SM
13:51
Partly Cloudy
82°F / 28°C 66°F / 19°C 58% 30.04 in
(1017 mb)
NW 6.9 mph
(NW 11 kph)
- 10SM
12:51
Mostly Cloudy
82°F / 28°C 66°F / 19°C 58% 30.06 in
(1018 mb)
SW 6.9 mph
(SW 11 kph)
- 10SM
12:21
Partly Cloudy
82°F / 28°C 68°F / 20°C 62% 30.06 in
(1018 mb)
SW 8.1 mph
(SW 13 kph)
- 10SM
11:51
Mostly Cloudy
81°F / 27°C 68°F / 20°C 66% 30.06 in
(1018 mb)
NW 5.8 mph
(NW 9 kph)
- 10SM
10:51
Mostly Cloudy
81°F / 27°C 68°F / 20°C 66% 30.09 in
(1019 mb)
Variable 4.6 mph
(Variable 7 kph)
- 10SM
09:51
Mostly Cloudy
75°F / 24°C 70°F / 21°C 83% 30.09 in
(1019 mb)
S 4.6 mph
(S 7 kph)
- 10SM
09:46
Mostly Cloudy
75°F / 24°C 70°F / 21°C 83% 30.09 in
(1019 mb)
SSE 5.8 mph
(SSE 9 kph)
- 10SM
09:37
Overcast
75°F / 24°C 70°F / 21°C 83% 30.09 in
(1019 mb)
SW 5.8 mph
(SW 9 kph)
- 10SM
09:27
Overcast
75°F / 24°C 70°F / 21°C 83% 30.09 in
(1019 mb)
Calm - 10SM
09:13
Overcast
75°F / 24°C 72°F / 22°C 89% 30.09 in
(1019 mb)
SE 3.5 mph
(SE 6 kph)
- 10SM
09:05
Overcast
75°F / 24°C 72°F / 22°C 89% 30.09 in
(1019 mb)
Calm - 10SM
08:51
Overcast
Fog And Mist
73°F / 23°C 72°F / 22°C 94% 30.06 in
(1018 mb)
ESE 3.5 mph
(ESE 6 kph)
- 5SM
08:25
Overcast
73°F / 23°C 72°F / 22°C 94% 30.09 in
(1019 mb)
SE 5.8 mph
(SE 9 kph)
- 10SM
07:51
Overcast
Fog And Mist
73°F / 23°C 72°F / 22°C 94% 30.09 in
(1019 mb)
SE 4.6 mph
(SE 7 kph)
- 5SM
07:35
Overcast
73°F / 23°C 72°F / 22°C 94% 30.06 in
(1018 mb)
SE 4.6 mph
(SE 7 kph)
- 10SM
07:24
Overcast
73°F / 23°C 70°F / 21°C 89% 30.06 in
(1018 mb)
SE 5.8 mph
(SE 9 kph)
- 10SM
06:59
Overcast
72°F / 22°C 70°F / 21°C 94% 30.06 in
(1018 mb)
Calm - 8SM
06:51
Overcast
72°F / 22°C 70°F / 21°C 94% 30.06 in
(1018 mb)
Calm - 7SM
06:16
Overcast
72°F / 22°C 72°F / 22°C 100% 30.06 in
(1018 mb)
ENE 3.5 mph
(ENE 6 kph)
- 7SM
06:09
Overcast
72°F / 22°C 70°F / 21°C 94% 30.06 in
(1018 mb)
E 3.5 mph
(E 6 kph)
- 8SM
06:01
Overcast
72°F / 22°C 70°F / 21°C 94% 30.06 in
(1018 mb)
Calm - 8SM
05:51
Overcast
72°F / 22°C 70°F / 21°C 94% 30.06 in
(1018 mb)
Calm 0.00 in
(0.00 mm)
8SM
05:03
Overcast
72°F / 22°C 70°F / 21°C 94% 30.04 in
(1017 mb)
Calm - 9SM
04:51
Mostly Cloudy
72°F / 22°C 70°F / 21°C 94% 30.04 in
(1017 mb)
Calm - 8SM
04:39
Mostly Cloudy
72°F / 22°C 70°F / 21°C 94% 30.04 in
(1017 mb)
ENE 3.5 mph
(ENE 6 kph)
- 8SM
03:51
Overcast
72°F / 22°C 70°F / 21°C 94% 30.04 in
(1017 mb)
E 4.6 mph
(E 7 kph)
- 8SM
03:44
Overcast
72°F / 22°C 70°F / 21°C 94% 30.06 in
(1018 mb)
Calm - 7SM
03:32
Overcast
72°F / 22°C 70°F / 21°C 94% 30.06 in
(1018 mb)
ESE 4.6 mph
(ESE 7 kph)
- 7SM
03:09
Overcast
72°F / 22°C 70°F / 21°C 94% 30.04 in
(1017 mb)
SE 5.8 mph
(SE 9 kph)
- 7SM
02:51
Overcast
72°F / 22°C 70°F / 21°C 94% 30.04 in
(1017 mb)
ESE 8.1 mph
(ESE 13 kph)
- 8SM
02:39
Overcast
72°F / 22°C 70°F / 21°C 94% 30.04 in
(1017 mb)
ESE 6.9 mph
(ESE 11 kph)
- 8SM
01:51
Overcast
72°F / 22°C 70°F / 21°C 94% 30.06 in
(1018 mb)
SE 3.5 mph
(SE 6 kph)
0.00 in
(0.00 mm)
8SM
01:11
Overcast
72°F / 22°C 70°F / 21°C 94% 30.06 in
(1018 mb)
SE 4.6 mph
(SE 7 kph)
0.00 in
(0.00 mm)
10SM
00:51
Overcast
72°F / 22°C 70°F / 21°C 94% 30.06 in
(1018 mb)
ESE 4.6 mph
(ESE 7 kph)
- 10SM
00:10
Overcast
72°F / 22°C 70°F / 21°C 94% 30.09 in
(1019 mb)
E 4.6 mph
(E 7 kph)
- 10SM
Time Weather Temperature Dewpoint Humidity Pressure Winds Precip Visibility


Weather for websites

WeatherForYou.com, LLC is not responsible for any damages or problems caused by this service. Current weather conditions are obtained from the closest station including government and personal stations which may have varying degrees of accuracy. Weather forecasts are derived from the NOAA NDFD. Like all things, this site belongs to Jesus Christ... He just trusts us to maintain it. If you have any questions or comments email webmaster@weatherforyou.com

Copyright © 2015, WeatherForYou.com LLC. All rights reserved.